TimeCDT,TemperatureF,Dew PointF,Humidity,Sea Level PressureIn,VisibilityMPH,Wind Direction,Wind SpeedMPH,Gust SpeedMPH,PrecipitationIn,Events,Conditions,WindDirDegrees,DateUTC
12:53 AM,57.0,54.0,89,30.03,10.0,Calm,Calm,-,0.00,,Clear,0,2013-05-08 05:53:00
1:53 AM,55.9,53.1,90,30.02,9.0,Calm,Calm,-,N/A,,Clear,0,2013-05-08 06:53:00
2:53 AM,55.9,54.0,93,30.02,10.0,Calm,Calm,-,N/A,,Clear,0,2013-05-08 07:53:00
3:53 AM,55.9,53.1,90,30.01,9.0,Calm,Calm,-,N/A,,Clear,0,2013-05-08 08:53:00
4:53 AM,55.0,53.1,93,30.02,8.0,Calm,Calm,-,N/A,,Clear,0,2013-05-08 09:53:00
5:53 AM,55.9,53.1,90,30.01,10.0,Calm,Calm,-,N/A,,Clear,0,2013-05-08 10:53:00
6:53 AM,55.9,53.1,90,30.04,9.0,Calm,Calm,-,N/A,,Clear,0,2013-05-08 11:53:00
7:53 AM,60.1,57.0,90,30.05,10.0,Calm,Calm,-,N/A,,Clear,0,2013-05-08 12:53:00
8:53 AM,70.0,57.9,65,30.07,10.0,SW,6.9,-,N/A,,Clear,220,2013-05-08 13:53:00
9:53 AM,75.0,57.9,55,30.09,10.0,SW,8.1,-,N/A,,Clear,230,2013-05-08 14:53:00
10:53 AM,77.0,57.0,50,30.09,-9999.0,South,5.8,-,N/A,,Clear,180,2013-05-08 15:53:00
11:53 AM,82.0,55.9,41,30.08,10.0,Variable,4.6,-,N/A,,Clear,0,2013-05-08 16:53:00
12:53 PM,80.1,55.9,43,30.06,10.0,North,-9999.0,-,0.09,,Clear,0,2013-05-08 17:53:00
1:53 PM,80.1,55.0,42,30.05,10.0,SSE,5.8,-,N/A,,Mostly Cloudy,160,2013-05-08 18:53:00
2:53 PM,80.1,54.0,40,30.04,10.0,Variable,6.9,-,N/A,,Scattered Clouds,0,2013-05-08 19:53:00
3:53 PM,82.0,55.0,39,30.02,10.0,Variable,5.8,-,N/A,,Partly Cloudy,0,2013-05-08 20:53:00
4:53 PM,82.0,55.0,39,30.01,10.0,South,9.2,-,N/A,,Clear,190,2013-05-08 21:53:00
5:53 PM,82.0,57.0,42,30.01,10.0,South,4.6,-,N/A,,Clear,170,2013-05-08 22:53:00
6:53 PM,80.1,59.0,48,30.01,10.0,SSE,4.6,-,N/A,,Clear,160,2013-05-08 23:53:00
7:53 PM,75.0,60.1,60,30.00,10.0,Calm,Calm,-,N/A,,Clear,0,2013-05-09 00:53:00
8:53 PM,73.0,60.1,64,30.00,10.0,SSE,3.5,-,N/A,,Clear,160,2013-05-09 01:53:00
9:53 PM,69.1,60.1,73,30.01,10.0,South,3.5,-,N/A,,Clear,180,2013-05-09 02:53:00
10:53 PM,69.1,59.0,70,30.00,10.0,South,4.6,-,N/A,,Clear,180,2013-05-09 03:53:00
11:53 PM,68.0,59.0,73,30.00,10.0,SSE,4.6,-,N/A,,Clear,160,2013-05-09 04:53:00